,

(GMT )
Claresholm

Weather History for CWDK - November, 2012

Change the Weather History Date:

Sunday, November 11, 2012

  Actual Average Record
Temperature  
Mean Temperature 4 °F -  
Max Temperature 29 °F - - ()
Min Temperature -21 °F - - ()
Degree Days  
Heating Degree Days 61    
Moisture  
Dew Point -2 °F    
Average Humidity 73    
Maximum Humidity 90    
Minimum Humidity 51    
Precipitation  
Precipitation 0.00 in - - ()
Sea Level Pressure  
Sea Level Pressure 30.20 in    
Wind  
Wind Speed 3 mph ()    
Max Wind Speed 20 mph    
Max Gust Speed 28 mph    
T = Trace of Precipitation, MM = Missing Value Source: Averaged Metar Reports

Daily Weather History Graph

Daily Weather History Graph

Search for Another Location

Airport or City:

Trip Planner

Search our weather history database for the weather conditions in past years. The results will help you decide how hot, cold, wet, or windy it might be!

Date:

Astronomy

Nov. 11, 2012 Rise Set
Actual Time 7:41 AM MST 4:54 PM MST
Civil Twilight 7:06 AM MST 5:30 PM MST
Nautical Twilight 6:27 AM MST 6:09 PM MST
Astronomical Twilight 5:49 AM MST 6:46 PM MST
Moon 4:48 AM MST (11/11) 3:30 PM MST (11/11)
Length of Visible Light 10h 23m
Length of Day
9h 13m
Waning Crescent, 7% of the Moon is Illuminated
Nov 11
Waning Crescent
Nov 13
New
Nov 20
First Quarter
Nov 28
Full
Dec 6
Last Quarter

Hourly Weather History & Observations

Time (MST) Temp. Windchill Dew Point Humidity Pressure Visibility Wind Dir Wind Speed Gust Speed Precip Events Conditions
12:00 AM -8.7 °F - -11.9 °F 86% 30.23 in - ENE 2.3 mph - N/A   Unknown
1:00 AM -13.2 °F - -17.1 °F 82% 30.22 in - NNW 2.3 mph - N/A   Unknown
2:00 AM -19.3 °F - -24.0 °F 79% 30.24 in - Calm Calm - N/A   Unknown
3:00 AM -16.1 °F - -20.6 °F 80% 30.24 in - Calm Calm - N/A   Unknown
4:00 AM -16.2 °F - -20.7 °F 80% 30.25 in - ESE 2.3 mph - N/A   Unknown
5:00 AM -16 °F - -21 °F 69% 30.26 in - North 1.2 mph - -  
5:00 AM -16.2 °F - -20.6 °F 81% 30.26 in - North 1.2 mph - N/A   Unknown
6:00 AM -14.8 °F - -19.1 °F 81% 30.25 in - Calm Calm - N/A   Unknown
7:00 AM -14.3 °F - -18.4 °F 82% 30.25 in - NNE 1.2 mph - N/A   Unknown
8:00 AM -15.3 °F - -19.3 °F 82% 30.27 in - NNE 1.2 mph - N/A   Unknown
9:00 AM -13.0 °F - -16.8 °F 83% 30.29 in - Calm Calm - N/A   Unknown
10:00 AM -3.8 °F - -6.2 °F 90% 30.25 in - Calm Calm - N/A   Unknown
11:00 AM 0 °F - -3 °F 83% 30.22 in - SE 4.6 mph - -  
11:00 AM 0.1 °F -9.7 °F -2.6 °F 88% 30.22 in - SE 4.6 mph - N/A   Unknown
12:00 PM 9.3 °F - 5.0 °F 83% 30.19 in - East 2.3 mph - N/A   Unknown
1:00 PM 11.1 °F - 4.8 °F 76% 30.20 in - SE 2.3 mph - N/A   Unknown
2:00 PM 12.7 °F 6.7 °F 2.5 °F 64% 30.18 in - ESE 3.5 mph - N/A   Unknown
3:00 PM 13.8 °F 8.0 °F 3.0 °F 62% 30.17 in - ESE 3.5 mph - N/A   Unknown
4:00 PM 13.8 °F 6.2 °F 6.1 °F 71% 30.18 in - SE 4.6 mph - N/A   Unknown
5:00 PM 24 °F - 13 °F 51% 30.16 in - WNW 6.9 mph - -  
5:00 PM 24.1 °F 16.0 °F 13.3 °F 63% 30.16 in - WNW 6.9 mph - N/A   Unknown
6:00 PM 27.3 °F 18.4 °F 15.6 °F 61% 30.17 in - West 9.2 mph - N/A   Unknown
7:00 PM 28.4 °F 20.4 °F 14.5 °F 56% 30.17 in - West 8.1 mph - N/A   Unknown
8:00 PM 27.9 °F 17.8 °F 14.4 °F 57% 30.17 in - WNW 11.5 mph - N/A   Unknown
9:00 PM 26.1 °F 13.6 °F 15.1 °F 63% 30.14 in - West 16.1 mph 24.2 mph N/A   Unknown
10:00 PM 27.5 °F 16.8 °F 16.3 °F 63% 30.12 in - West 12.7 mph 18.4 mph N/A   Unknown
11:00 PM 28 °F - 17 °F 51% 30.09 in - West 19.6 mph - -  
11:00 PM 27.7 °F 14.5 °F 17.1 °F 64% 30.09 in - West 19.6 mph 27.6 mph N/A   Unknown